• In Germany
  • List of Countries
  • For 7 days
  • Water Temperature
  • Satellite Maps
  • Weather Map
  • Weather Widgets
  • user-avatar
    Login

    Hourly Weather Durres

    Today, 28 June, Wednesday

    Time Temperature Precipitation Wind Pressure Humidity
    00:00 +23°C° 0 mm 4 mps 757 mmHg 66%
    01:00 +23°C° 0 mm 5 mps 756 mmHg 66%
    02:00 +23°C° 0 mm 5 mps 756 mmHg 64%
    03:00 +25°C° 0 mm 5 mps 756 mmHg 62%
    04:00 +25°C° 0 mm 5 mps 756 mmHg 60%
    05:00 +27°C° 0 mm 5 mps 756 mmHg 55%
    06:00 +29°C° 0 mm 5 mps 756 mmHg 50%
    07:00 +32°C° 0 mm 5 mps 756 mmHg 43%
    08:00 +34°C° 0 mm 5 mps 756 mmHg 40%
    09:00 +35°C° 0 mm 6 mps 756 mmHg 36%
    10:00 +36°C° 0 mm 6 mps 756 mmHg 33%
    11:00 +36°C° 0 mm 6 mps 756 mmHg 33%
    12:00 +36°C° 0 mm 6 mps 756 mmHg 33%
    13:00 +38°C° 0 mm 6 mps 756 mmHg 33%
    14:00 +36°C° 0 mm 6 mps 756 mmHg 34%
    15:00 +36°C° 0 mm 5 mps 756 mmHg 35%
    16:00 +36°C° 0 mm 5 mps 756 mmHg 35%
    17:00 +33°C° 0 mm 5 mps 756 mmHg 44%
    18:00 +30°C° 0 mm 5 mps 756 mmHg 54%
    19:00 +28°C° 0 mm 5 mps 756 mmHg 63%
    20:00 +27°C° 0 mm 5 mps 756 mmHg 60%
    21:00 +27°C° 0 mm 5 mps 756 mmHg 58%
    22:00 +26°C° 0 mm 6 mps 756 mmHg 56%
    23:00 +26°C° 0 mm 6 mps 756 mmHg 55%

    Tomorrow, 29 June, Thursday

    Time Temperature Precipitation Wind Pressure Humidity
    00:00 +26°C° 0 mm 6 mps 756 mmHg 54%
    01:00 +26°C° 0 mm 6 mps 756 mmHg 53%
    02:00 +26°C° 0 mm 6 mps 756 mmHg 53%
    03:00 +26°C° 0 mm 6 mps 756 mmHg 53%
    04:00 +26°C° 0 mm 6 mps 755 mmHg 52%
    05:00 +28°C° 0.2 mm 6 mps 755 mmHg 50%
    06:00 +30°C° 0.2 mm 7 mps 755 mmHg 48%
    07:00 +32°C° 0.2 mm 7 mps 756 mmHg 46%
    08:00 +34°C° 0 mm 8 mps 756 mmHg 39%
    09:00 +37°C° 0 mm 8 mps 756 mmHg 32%
    10:00 +39°C° 0 mm 9 mps 756 mmHg 25%
    11:00 +39°C° 0 mm 9 mps 756 mmHg 26%
    12:00 +40°C° 0 mm 9 mps 756 mmHg 27%
    13:00 +40°C° 0 mm 9 mps 756 mmHg 27%
    14:00 +39°C° 0 mm 9 mps 756 mmHg 29%
    15:00 +39°C° 0 mm 9 mps 756 mmHg 31%
    16:00 +38°C° 0 mm 9 mps 756 mmHg 32%
    17:00 +35°C° 0 mm 9 mps 756 mmHg 41%
    18:00 +32°C° 0 mm 9 mps 756 mmHg 49%
    19:00 +29°C° 0 mm 8 mps 756 mmHg 57%
    20:00 +28°C° 0 mm 8 mps 757 mmHg 57%
    21:00 +27°C° 0 mm 8 mps 757 mmHg 57%
    22:00 +26°C° 0 mm 7 mps 758 mmHg 57%
    23:00 +26°C° 0 mm 6 mps 758 mmHg 56%

    Day after tomorrow, 30 June, Friday

    Time Temperature Precipitation Wind Pressure Humidity
    00:00 +26°C° 0 mm 6 mps 758 mmHg 56%
    01:00 +26°C° 0 mm 5 mps 758 mmHg 55%
    02:00 +25°C° 0 mm 4 mps 758 mmHg 57%
    03:00 +25°C° 0 mm 4 mps 758 mmHg 59%
    04:00 +24°C° 0 mm 3 mps 758 mmHg 61%
    05:00 +27°C° 0 mm 3 mps 759 mmHg 55%
    06:00 +29°C° 0 mm 3 mps 759 mmHg 49%
    07:00 +31°C° 0 mm 3 mps 759 mmHg 42%
    08:00 +34°C° 0 mm 3 mps 759 mmHg 37%
    09:00 +37°C° 0 mm 2 mps 759 mmHg 32%
    10:00 +39°C° 0 mm 2 mps 759 mmHg 27%
    11:00 +39°C° 0 mm 3 mps 759 mmHg 26%
    12:00 +40°C° 0 mm 3 mps 758 mmHg 25%
    13:00 +41°C° 0 mm 4 mps 758 mmHg 24%
    14:00 +41°C° 0 mm 4 mps 758 mmHg 27%
    15:00 +40°C° 0 mm 4 mps 757 mmHg 30%
    16:00 +38°C° 0 mm 4 mps 757 mmHg 32%
    17:00 +36°C° 0 mm 4 mps 757 mmHg 42%
    18:00 +33°C° 0 mm 4 mps 757 mmHg 51%
    19:00 +29°C° 0 mm 4 mps 757 mmHg 60%
    20:00 +29°C° 0 mm 4 mps 757 mmHg 57%
    21:00 +29°C° 0 mm 5 mps 757 mmHg 54%
    22:00 +29°C° 0 mm 5 mps 757 mmHg 51%
    23:00 +29°C° 0 mm 5 mps 757 mmHg 49%

    1 July, Saturday

    Time Temperature Precipitation Wind Pressure Humidity
    00:00 +28°C° 0 mm 6 mps 757 mmHg 48%
    01:00 +28°C° 0 mm 6 mps 756 mmHg 46%
    02:00 +28°C° 0 mm 5 mps 756 mmHg 43%
    03:00 +28°C° 0 mm 5 mps 756 mmHg 41%
    04:00 +28°C° 0 mm 4 mps 756 mmHg 38%
    05:00 +30°C° 0 mm 4 mps 757 mmHg 36%
    06:00 +32°C° 0 mm 4 mps 757 mmHg 35%
    07:00 +34°C° 0 mm 4 mps 757 mmHg 33%
    08:00 +35°C° 0 mm 3 mps 757 mmHg 34%
    09:00 +36°C° 0 mm 3 mps 757 mmHg 35%
    10:00 +37°C° 0 mm 3 mps 757 mmHg 35%
    11:00 +38°C° 0 mm 4 mps 757 mmHg 34%
    12:00 +38°C° 0 mm 4 mps 757 mmHg 33%
    13:00 +40°C° 0 mm 5 mps 756 mmHg 32%
    14:00 +39°C° 0 mm 5 mps 756 mmHg 36%
    15:00 +37°C° 0 mm 5 mps 756 mmHg 40%
    16:00 +38°C° 0 mm 6 mps 756 mmHg 43%
    17:00 +34°C° 0 mm 5 mps 756 mmHg 56%
    18:00 +30°C° 0 mm 4 mps 756 mmHg 68%
    19:00 +28°C° 0 mm 4 mps 756 mmHg 80%
    20:00 +27°C° 0 mm 4 mps 756 mmHg 84%
    21:00 +26°C° 0 mm 4 mps 756 mmHg 87%
    22:00 +25°C° 0 mm 4 mps 756 mmHg 91%
    23:00 +23°C° 0 mm 4 mps 756 mmHg 91%

    2 July, Sunday

    Time Temperature Precipitation Wind Pressure Humidity
    00:00 +24°C° 0 mm 3 mps 756 mmHg 91%
    01:00 +22°C° 0 mm 3 mps 755 mmHg 90%
    02:00 +22°C° 0 mm 3 mps 755 mmHg 89%
    03:00 +22°C° 0 mm 4 mps 755 mmHg 89%
    04:00 +22°C° 0 mm 4 mps 755 mmHg 88%
    05:00 +25°C° 0 mm 4 mps 755 mmHg 78%
    06:00 +27°C° 0 mm 5 mps 755 mmHg 68%
    07:00 +29°C° 0 mm 5 mps 755 mmHg 58%
    08:00 +29°C° 0 mm 6 mps 755 mmHg 52%
    09:00 +30°C° 0 mm 6 mps 755 mmHg 46%
    10:00 +32°C° 0 mm 6 mps 755 mmHg 41%
    11:00 +32°C° 0 mm 6 mps 755 mmHg 38%
    12:00 +33°C° 0 mm 7 mps 755 mmHg 35%
    13:00 +33°C° 0 mm 8 mps 755 mmHg 32%
    14:00 +33°C° 0 mm 8 mps 755 mmHg 33%
    15:00 +32°C° 0 mm 8 mps 755 mmHg 34%
    16:00 +32°C° 0 mm 8 mps 755 mmHg 36%
    17:00 +28°C° 0.1 mm 7 mps 755 mmHg 47%
    18:00 +26°C° 0.1 mm 7 mps 755 mmHg 58%
    19:00 +23°C° 0.1 mm 7 mps 755 mmHg 70%
    20:00 +22°C° 0.2 mm 6 mps 756 mmHg 73%
    21:00 +21°C° 0.2 mm 6 mps 756 mmHg 76%
    22:00 +21°C° 0.2 mm 5 mps 756 mmHg 79%
    23:00 +20°C° 0 mm 5 mps 756 mmHg 78%

    3 July, Monday

    Time Temperature Precipitation Wind Pressure Humidity
    00:00 +20°C° 0 mm 5 mps 756 mmHg 76%
    01:00 +20°C° 0 mm 5 mps 756 mmHg 74%
    02:00 +20°C° 0 mm 5 mps 756 mmHg 74%
    03:00 +19°C° 0 mm 5 mps 757 mmHg 73%
    04:00 +19°C° 0 mm 5 mps 757 mmHg 73%
    05:00 +21°C° 0 mm 5 mps 757 mmHg 66%
    06:00 +23°C° 0 mm 5 mps 757 mmHg 59%
    07:00 +25°C° 0 mm 5 mps 757 mmHg 51%
    08:00 +27°C° 0 mm 5 mps 757 mmHg 45%
    09:00 +29°C° 0 mm 5 mps 757 mmHg 39%
    10:00 +32°C° 0 mm 5 mps 757 mmHg 34%
    11:00 +33°C° 0 mm 6 mps 757 mmHg 32%
    12:00 +33°C° 0 mm 6 mps 757 mmHg 31%
    13:00 +34°C° 0 mm 7 mps 757 mmHg 29%
    14:00 +33°C° 0 mm 7 mps 757 mmHg 31%
    15:00 +33°C° 0 mm 8 mps 757 mmHg 32%
    16:00 +33°C° 0 mm 8 mps 757 mmHg 34%
    17:00 +29°C° 0 mm 8 mps 757 mmHg 42%
    18:00 +27°C° 0 mm 7 mps 758 mmHg 50%
    19:00 +24°C° 0 mm 7 mps 758 mmHg 58%
    20:00 +23°C° 0 mm 7 mps 758 mmHg 59%
    21:00 +23°C° 0 mm 7 mps 759 mmHg 60%
    22:00 +22°C° 0 mm 7 mps 759 mmHg 61%
    23:00 +21°C° 0 mm 7 mps 759 mmHg 62%
    Show more